STARLINK-32376, 61707

Orbit data source: Space-Track

STARLINK-32376, 61707 is a payload satellite owned by SpaceX/Seattle (US) in LEO that was launched on Wed, 30 Oct 2024 UTC via an FALCON 9 launch vehicle from the Air Force Eastern Test Range (AFETR). Payloads include a variety of satellites, spacecraft, and rockets equipped with specific instruments for various scientific and technological missions. These include communications satellites like Starlink; space stations such as the ISS; scientific satellites like the Hubble; Earth observation satellites from companies like Planet Labs, Umbra, and HawkEye 360; GPS; miniature CubeSats for education and research; and military/defense satellites.

Loading next visibility...
STARLINK-32376 details
Identifier
61707, 2024-196A
Orbit
LEO
Last TLE update8 hours ago
Origin
Flag of USSpaceX/Seattle (US)
ManufacturerSpaceX/Seattle
MissionOperational spacecraft
Bus & MotorSTARLINK V2M, Unknown motor
Mass730 kg wet, ~700 kg dry
Launch date (UTC)
2024-10-30 (2 months ago)
Launch vehicle
FALCON 9
Launch site
Air Force Eastern Test Range (AFETR)
Object type
Payload
Rocket body
Debris
Shape & HBRUnknown
Radar Cross SectionLarge (>1 m²)

Expand to show TLE details & history

TLE from 8 hours ago
0 STARLINK-32376
1 61707U 24196A   24361.10795597 -.00000722  00000-0 -80580-5 0  9991
2 61707  53.1611 340.9373 0001084  81.3735 278.7392 15.39627607  9990
Epoch: 2024-12-26T02:35Z
Definitive object data (Epoch: 2024-12-26T02:35:27.395Z)
Latitude-0.00009°
Longitude-153.019°
Altitude448.001 km
Speed7.645 km/s
True Right ascension22h 43m 44s
True Declination0° 00' 00"
Sunlit
Object was in daylight at TLE epoch
Visualization TLE readout
Latitude53.25398°
Longitude-60.84344°
Altitude453.038 km
Speed7.647 km/s
Apparent Right ascension01h 05m 26s
Apparent Declination13° 29' 53"
Sunlit
Object is in full shadow
Visualization observer readout
Local Sidereal Time10:08:00
Azimuth312.601° NW
Elevation-22.549°
Doppler factor1
Orbital elements
Apogee altitude448.207 km
Perigee altitude446.727 km
Semi-major axis6,825.604 km
Eccentricity0.0001084
Inclination53.1611°
RAAN340.9373°
Arg. of periapsis81.3735°
True anomaly278.72692°
Mean anomaly278.7392°
Eccentric anomaly278.73306°
Mean motion3.84885 °/min
BSTAR-0.000008058
Orbital period93.53 mins
Loading maneuver chart data...
Loading historical data...
Loading historical data...
Loading historical data...
Loading historical data...
Loading historical data...
Loading historical data...
Loading historical data...

STARLINK-32376 Visibility forecast

Observer location: undefined°, undefined

Span
Click to sort rows by Start time (UTC) header in descending order
Start Az.
Max El. time (UTC)
Max El. Az.
Max El.
End time (UTC)
End Az.
4 mins2024-12-27 00:33:46.006Z171.964° S2024-12-27 00:35:46.006Z129.516° SE19.89°2024-12-27 00:37:46.006Z87.303° E
5 mins2024-12-27 02:10:46.006Z263.327° W2024-12-27 02:12:46.006Z321.516° NNW33.389°2024-12-27 02:15:46.006Z35.753° NE
4 mins2024-12-27 08:43:46.006Z285.857° WNW2024-12-27 08:45:46.006Z195.801° SSW35.582°2024-12-27 08:47:46.006Z153.579° SSE
|